7 * 24
多渠道服务支持
STARLINK-36971(NORAD编号68165)是SpaceX星链星座中的第二代低轨互联网卫星。卫星采用紧凑平板设计,配备相控阵天线与星间激光链路,支持高速低延迟宽带通信,可同时连接多地面终端,提升频谱利用率与通信容量。作为星链全球网络的组成部分,它运行在近地轨道,为全球提供互联网接入服务,支持流媒体、视频通话等应用。该卫星遵循星链标准退役机制,退役后将受控再入大气层,坠入无人海域,降低空间碎片与地面安全风险,是星链持续扩容、技术迭代的典型单元。
美国
(US)
| 数据来源 | 国际轨道数据 |
| 星历时间: | 2026-05-24T08:18:30+0800 1天前 查看轨道信息 |
| 半长轴: | 6843.657km |
| 偏心率: | 0.0001441 |
| 轨道倾角: | 97.284° |
| 近地点辐角 | 92.175° |
| 升交点赤经 | 165.730° |
| 平近点角 | 267.966° |
| 近地点: | 464.533km |
| 远地点: | 466.507km |
| 周期: | 93.906分钟 |
| 每日圈数: | 15.33453 |